User: anonymous   Login
Location: Unspecified
(0.0000°N, 0.0000°E)
Time: 04:10:37
(UTC+00:00)
Language:

A-11 Canister half - Orbit

View from above orbital plane
View from above orbital plane
View from above satellite
View from above satellite

Ground track
Ground track

The orbit data is extracted from the following two-line orbital elements,

1 00051U 60009C   16178.41329386 -.00000016  00000-0  66771-3 0  9998
2 00051  47.2101 159.6336 0104087 166.8100 193.5444 12.18262670487068
Epoch (UTC): 26 June 2016 09:55:08
Eccentricity: 0.0104087
inclination: 47.2101°
perigee height: 1517 km
apogee height: 1683 km
right ascension of ascending node: 159.6336°
argument of perigee: 166.8100°
revolutions per day: 12.18262670
mean anomaly at epoch: 193.5444°
orbit number at epoch: 48706

The dashed part of the orbit path shows where the satellite is in the earth's shadow,  

DLR